| time (UTC) | temp F | wind direction | speed MPH | gust MPH | rain 1hr in | rain 24hr in | rain mn in | humidity % | barometer mb |
| 20260901034510 | 66 | 92 | 0.0 | 0.0 | 0.00 | 0.02 | 0.01 | 91 | 1017.7 |
| 20260901034011 | 66 | 92 | 0.0 | 1.0 | 0.00 | 0.04 | 0.01 | 90 | 1017.8 |
| 20260901033511 | 66 | 92 | 0.0 | 1.0 | 0.00 | 0.18 | 0.01 | 90 | 1017.8 |
| 20260901033010 | 66 | 92 | 0.0 | 1.0 | 0.00 | 0.25 | 0.01 | 90 | 1017.8 |
| 20260901032511 | 66 | 92 | 0.0 | 1.0 | 0.00 | 0.33 | 0.01 | 90 | 1017.8 |
| 20260901032015 | 66 | 92 | 0.0 | 1.0 | 0.00 | 0.40 | 0.01 | 90 | 1017.7 |
| 20260901032009 | 66 | 92 | 0.0 | 1.0 | 0.00 | 0.44 | 0.01 | 90 | 1017.8 |
| 20260901031626 | 66 | 92 | 0.0 | 1.0 | 0.00 | 0.45 | 0.01 | 90 | 1017.8 |
| 20260901031010 | 66 | 92 | 0.0 | 1.0 | 0.00 | 0.44 | 0.01 | 90 | 1017.8 |
| 20260901030008 | 66 | 92 | 0.0 | 1.0 | 0.00 | 0.45 | 0.01 | 90 | 1017.9 |
| 20260901025514 | 66 | 92 | 0.0 | 1.0 | 0.00 | 0.46 | 0.01 | 90 | 1017.8 |
| 20260901025510 | 66 | 92 | 0.0 | 1.0 | 0.00 | 0.46 | 0.01 | 90 | 1017.8 |
| 20260901024508 | 66 | 92 | 0.0 | 1.0 | 0.00 | 0.46 | 0.01 | 90 | 1017.7 |
| 20260901024009 | 66 | 92 | 0.0 | 1.0 | 0.00 | 0.47 | 0.01 | 89 | 1017.7 |
| 20260901023508 | 66 | 92 | 0.0 | 1.0 | 0.00 | 0.47 | 0.01 | 89 | 1017.8 |
| 20260901023009 | 66 | 92 | 0.0 | 1.0 | 0.00 | 0.47 | 0.01 | 89 | 1017.8 |
| 20260901022509 | 66 | 92 | 0.0 | 2.0 | 0.00 | 0.47 | 0.01 | 89 | 1017.9 |
| 20260901022009 | 66 | 92 | 1.0 | 2.0 | 0.00 | 0.47 | 0.01 | 89 | 1018.0 |
| 20260901021513 | 66 | 115 | 0.0 | 2.0 | 0.00 | 0.47 | 0.01 | 89 | 1018.0 |
| 20260901021509 | 66 | 115 | 0.0 | 2.0 | 0.00 | 0.47 | 0.01 | 89 | 1018.0 |
| 20260901020508 | 67 | 115 | 0.0 | 1.0 | 0.00 | 0.47 | 0.01 | 89 | 1018.0 |
| 20260901020009 | 67 | 53 | 0.0 | 1.0 | 0.00 | 0.47 | 0.01 | 89 | 1018.1 |
| 20260901015509 | 67 | 53 | 0.0 | 2.0 | 0.00 | 0.47 | 0.01 | 89 | 1018.1 |
| 20260901015015 | 67 | 51 | 0.0 | 4.0 | 0.00 | 0.47 | 0.01 | 89 | 1018.1 |
| 20260901015009 | 67 | 53 | 0.0 | 2.0 | 0.00 | 0.47 | 0.01 | 89 | 1018.2 |
| 20260901014508 | 67 | 51 | 0.0 | 3.0 | 0.00 | 0.47 | 0.01 | 89 | 1018.2 |
| 20260901013508 | 67 | 51 | 0.0 | 4.0 | 0.00 | 0.47 | 0.01 | 89 | 1018.1 |
| 20260901013009 | 67 | 51 | 0.0 | 1.0 | 0.00 | 0.47 | 0.01 | 89 | 1018.1 |
| 20260901012508 | 67 | 51 | 0.0 | 2.0 | 0.00 | 0.47 | 0.01 | 89 | 1018.0 |
| 20260901012007 | 67 | 83 | 0.0 | 2.0 | 0.00 | 0.47 | 0.01 | 89 | 1018.1 |
| 20260901011508 | 67 | 86 | 0.0 | 3.0 | 0.00 | 0.47 | 0.01 | 89 | 1018.1 |
| 20260901011014 | 68 | 117 | 1.0 | 2.0 | 0.00 | 0.47 | 0.01 | 89 | 1018.0 |
| 20260901011009 | 67 | 80 | 1.0 | 3.0 | 0.00 | 0.47 | 0.01 | 89 | 1018.0 |
| 20260901010509 | 67 | 117 | 1.0 | 2.0 | 0.00 | 0.47 | 0.01 | 89 | 1018.0 |
| 20260901005508 | 68 | 116 | 0.0 | 2.0 | 0.00 | 0.47 | 0.01 | 88 | 1018.0 |
| 20260901005011 | 68 | 112 | 1.0 | 2.0 | 0.00 | 0.47 | 0.01 | 88 | 1017.9 |
| 20260901005006 | 68 | 114 | 0.0 | 2.0 | 0.00 | 0.47 | 0.01 | 88 | 1017.9 |
| 20260901004007 | 68 | 111 | 0.0 | 1.0 | 0.00 | 0.47 | 0.01 | 88 | 1017.9 |
| 20260901003506 | 68 | 109 | 0.0 | 1.0 | 0.00 | 0.47 | 0.01 | 88 | 1017.9 |
| 20260901003006 | 68 | 111 | 0.0 | 1.0 | 0.00 | 0.47 | 0.01 | 88 | 1017.9 |
| 20260901002504 | 68 | 111 | 0.0 | 2.0 | 0.00 | 0.47 | 0.01 | 88 | 1017.9 |
| 20260901002005 | 68 | 119 | 0.0 | 2.0 | 0.00 | 0.47 | 0.01 | 88 | 1017.9 |
| 20260901001505 | 68 | 85 | 0.0 | 1.0 | 0.00 | 0.47 | 0.01 | 87 | 1017.9 |
| 20260901001007 | 68 | 85 | 0.0 | 1.0 | 0.00 | 0.47 | 0.01 | 87 | 1017.9 |
| 20260901000624 | 68 | 85 | 0.0 | 1.0 | 0.00 | 0.47 | 0.01 | 85 | 1018.0 |
| 20260901000512 | 68 | 85 | 0.0 | 2.0 | 0.00 | 0.47 | 0.01 | 86 | 1018.0 |
| 20260901000507 | 68 | 85 | 0.0 | 2.0 | 0.00 | 0.47 | 0.01 | 87 | 1017.9 |
| 20260831235004 | 68 | 85 | 0.0 | 1.0 | 0.00 | 0.47 | 0.01 | 85 | 1017.9 |
| 20260831234503 | 68 | 85 | 0.0 | 0.0 | 0.00 | 0.47 | 0.01 | 85 | 1017.9 |
| 20260831234003 | 68 | 85 | 0.0 | 0.0 | 0.00 | 0.47 | 0.01 | 85 | 1017.8 |
| 20260831233508 | 69 | 85 | 0.0 | 0.0 | 0.00 | 0.47 | 0.01 | 84 | 1017.9 |
| 20260831233504 | 69 | 85 | 0.0 | 0.0 | 0.00 | 0.47 | 0.01 | 85 | 1017.8 |
| 20260831232504 | 69 | 85 | 0.0 | 0.0 | 0.00 | 0.47 | 0.01 | 84 | 1018.0 |
| 20260831232004 | 69 | 85 | 0.0 | 0.0 | 0.00 | 0.47 | 0.01 | 84 | 1017.9 |
| 20260831231509 | 69 | 85 | 0.0 | 1.0 | 0.00 | 0.47 | 0.01 | 84 | 1017.9 |
| 20260831231503 | 69 | 85 | 0.0 | 1.0 | 0.00 | 0.47 | 0.01 | 84 | 1017.9 |
| 20260831230506 | 70 | 85 | 0.0 | 1.0 | 0.00 | 0.47 | 0.01 | 83 | 1017.9 |
| 20260831230502 | 69 | 85 | 0.0 | 0.0 | 0.00 | 0.47 | 0.01 | 84 | 1017.9 |
| 20260831230120 | 70 | 85 | 0.0 | 1.0 | 0.00 | 0.47 | 0.01 | 84 | 1018.0 |
| 20260831225007 | 70 | 85 | 0.0 | 1.0 | 0.00 | 0.47 | 0.01 | 84 | 1017.9 |
| 20260831225000 | 70 | 85 | 0.0 | 1.0 | 0.00 | 0.47 | 0.01 | 84 | 1018.0 |
| 20260831224004 | 70 | 85 | 0.0 | 2.0 | 0.00 | 0.47 | 0.01 | 82 | 1018.1 |
| 20260831224000 | 70 | 85 | 0.0 | 2.0 | 0.00 | 0.47 | 0.01 | 83 | 1018.1 |
| 20260831223005 | 71 | 84 | 0.0 | 2.0 | 0.00 | 0.47 | 0.01 | 82 | 1018.1 |
| 20260831223001 | 70 | 84 | 0.0 | 2.0 | 0.00 | 0.47 | 0.01 | 82 | 1018.1 |
| 20260831222001 | 71 | 84 | 0.0 | 2.0 | 0.00 | 0.47 | 0.01 | 83 | 1018.1 |
| 20260831221505 | 71 | 84 | 0.0 | 2.0 | 0.00 | 0.47 | 0.01 | 81 | 1018.0 |
| 20260831221500 | 71 | 84 | 0.0 | 2.0 | 0.00 | 0.47 | 0.01 | 82 | 1018.1 |
| 20260831220504 | 71 | 84 | 0.0 | 2.0 | 0.00 | 0.47 | 0.01 | 83 | 1018.0 |
| 20260831220459 | 71 | 84 | 0.0 | 2.0 | 0.00 | 0.47 | 0.01 | 81 | 1018.0 |
| 20260831215458 | 71 | 84 | 0.0 | 2.0 | 0.00 | 0.47 | 0.01 | 83 | 1018.1 |
| 20260831214958 | 71 | 90 | 0.0 | 2.0 | 0.00 | 0.47 | 0.01 | 82 | 1018.2 |
| 20260831214458 | 71 | 90 | 0.0 | 2.0 | 0.00 | 0.47 | 0.01 | 82 | 1018.2 |
| 20260831214002 | 71 | 89 | 0.0 | 2.0 | 0.00 | 0.47 | 0.01 | 82 | 1018.1 |
| 20260831213958 | 71 | 0 | 0.0 | 2.0 | 0.00 | 0.47 | 0.01 | 83 | 1018.1 |
| 20260831213002 | 71 | 99 | 0.0 | 1.0 | 0.00 | 0.47 | 0.01 | 81 | 1018.1 |
| 20260831212957 | 71 | 99 | 0.0 | 1.0 | 0.00 | 0.47 | 0.01 | 82 | 1018.1 |
| 20260831211956 | 71 | 99 | 1.0 | 2.0 | 0.00 | 0.47 | 0.01 | 81 | 1018.1 |
| 20260831211504 | 71 | 84 | 0.0 | 1.0 | 0.00 | 0.47 | 0.01 | 82 | 1018.2 |
| 20260831211456 | 71 | 99 | 1.0 | 2.0 | 0.00 | 0.47 | 0.01 | 80 | 1018.1 |
| 20260831210956 | 71 | 101 | 0.0 | 2.0 | 0.00 | 0.47 | 0.01 | 83 | 1018.1 |
| 20260831210613 | 71 | 84 | 0.0 | 1.0 | 0.00 | 0.47 | 0.01 | 82 | 1018.2 |
| 20260831205454 | 71 | 84 | 0.0 | 1.0 | 0.00 | 0.47 | 0.01 | 82 | 1018.1 |
| 20260831204954 | 71 | 84 | 0.0 | 1.0 | 0.00 | 0.47 | 0.01 | 81 | 1018.1 |
| 20260831204455 | 71 | 84 | 0.0 | 1.0 | 0.00 | 0.47 | 0.01 | 81 | 1018.2 |
| 20260831204002 | 71 | 84 | 0.0 | 2.0 | 0.00 | 0.47 | 0.01 | 80 | 1018.1 |
| 20260831203955 | 71 | 84 | 0.0 | 1.0 | 0.00 | 0.47 | 0.01 | 80 | 1018.0 |
| 20260831203456 | 71 | 84 | 0.0 | 1.0 | 0.00 | 0.47 | 0.01 | 81 | 1018.1 |
| 20260831202454 | 71 | 84 | 0.0 | 2.0 | 0.00 | 0.47 | 0.01 | 80 | 1018.1 |
| 20260831201954 | 71 | 84 | 0.0 | 1.0 | 0.00 | 0.47 | 0.01 | 80 | 1018.1 |
| 20260831201453 | 72 | 84 | 1.0 | 3.0 | 0.00 | 0.47 | 0.01 | 80 | 1018.2 |
| 20260831200955 | 72 | 84 | 1.0 | 3.0 | 0.00 | 0.47 | 0.01 | 79 | 1018.1 |
| 20260831200454 | 72 | 105 | 1.0 | 2.0 | 0.00 | 0.47 | 0.01 | 79 | 1018.0 |
| 20260831195953 | 72 | 105 | 1.0 | 3.0 | 0.00 | 0.47 | 0.01 | 80 | 1018.1 |
| 20260831195454 | 72 | 105 | 1.0 | 3.0 | 0.00 | 0.47 | 0.01 | 78 | 1018.2 |
| 20260831194952 | 72 | 106 | 1.0 | 3.0 | 0.00 | 0.47 | 0.01 | 78 | 1018.2 |
| 20260831194451 | 72 | 106 | 1.0 | 3.0 | 0.00 | 0.47 | 0.01 | 77 | 1018.3 |
| 20260831193948 | 72 | 80 | 1.0 | 3.0 | 0.00 | 0.47 | 0.01 | 77 | 1018.3 |
| 20260831193455 | 72 | 96 | 0.0 | 2.0 | 0.00 | 0.47 | 0.01 | 77 | 1018.3 |
| 20260831193449 | 72 | 97 | 0.0 | 2.0 | 0.00 | 0.47 | 0.01 | 78 | 1018.4 |
| 20260831192449 | 72 | 117 | 1.0 | 3.0 | 0.00 | 0.47 | 0.01 | 78 | 1018.4 |
| 20260831191947 | 72 | 117 | 1.0 | 3.0 | 0.00 | 0.47 | 0.01 | 77 | 1018.5 |
| 20260831191447 | 73 | 67 | 1.0 | 2.0 | 0.00 | 0.47 | 0.01 | 78 | 1018.4 |
| 20260831190949 | 73 | 67 | 1.0 | 2.0 | 0.00 | 0.47 | 0.01 | 76 | 1018.5 |
| 20260831190447 | 73 | 67 | 1.0 | 2.0 | 0.00 | 0.47 | 0.01 | 77 | 1018.5 |
| 20260831185946 | 73 | 63 | 1.0 | 2.0 | 0.00 | 0.47 | 0.01 | 76 | 1018.6 |
| 20260831185449 | 73 | 331 | 1.0 | 2.0 | 0.00 | 0.47 | 0.01 | 77 | 1018.8 |
| 20260831184946 | 73 | 88 | 1.0 | 2.0 | 0.00 | 0.47 | 0.01 | 74 | 1018.7 |
| 20260831184447 | 73 | 88 | 1.0 | 2.0 | 0.00 | 0.47 | 0.01 | 76 | 1018.8 |
| 20260831183946 | 73 | 88 | 1.0 | 3.0 | 0.00 | 0.47 | 0.01 | 74 | 1018.9 |
| 20260831183452 | 73 | 77 | 0.0 | 3.0 | 0.00 | 0.47 | 0.01 | 74 | 1019.0 |
| 20260831183448 | 73 | 77 | 1.0 | 3.0 | 0.00 | 0.47 | 0.01 | 75 | 1018.9 |
| 20260831183106 | 73 | 78 | 0.0 | 2.0 | 0.00 | 0.47 | 0.01 | 74 | 1019.0 |
| 20260831181952 | 73 | 78 | 1.0 | 2.0 | 0.00 | 0.47 | 0.01 | 73 | 1018.9 |
| 20260831181947 | 73 | 78 | 0.0 | 2.0 | 0.00 | 0.47 | 0.01 | 75 | 1018.9 |
| 20260831180947 | 73 | 78 | 0.0 | 1.0 | 0.00 | 0.47 | 0.01 | 74 | 1019.0 |
| 20260831180449 | 73 | 78 | 0.0 | 1.0 | 0.00 | 0.47 | 0.01 | 75 | 1019.0 |
| 20260831175949 | 73 | 78 | 0.0 | 2.0 | 0.00 | 0.47 | 0.01 | 77 | 1018.9 |
| 20260831175448 | 73 | 78 | 1.0 | 3.0 | 0.00 | 0.47 | 0.01 | 74 | 1019.0 |
| 20260831174946 | 73 | 78 | 1.0 | 3.0 | 0.00 | 0.47 | 0.01 | 73 | 1019.0 |
| 20260831174447 | 73 | 57 | 0.0 | 2.0 | 0.00 | 0.47 | 0.01 | 73 | 1019.2 |
| 20260831173946 | 73 | 57 | 1.0 | 2.0 | 0.00 | 0.47 | 0.01 | 73 | 1019.2 |
| 20260831173446 | 73 | 319 | 1.0 | 2.0 | 0.00 | 0.47 | 0.01 | 71 | 1019.2 |
| 20260831172945 | 73 | 322 | 0.0 | 1.0 | 0.00 | 0.47 | 0.01 | 68 | 1019.2 |
| 20260831172445 | 73 | 321 | 0.0 | 1.0 | 0.00 | 0.47 | 0.01 | 69 | 1019.1 |
| 20260831171950 | 73 | 321 | 1.0 | 2.0 | 0.00 | 0.47 | 0.01 | 70 | 1019.1 |
| 20260831171945 | 73 | 321 | 0.0 | 2.0 | 0.00 | 0.47 | 0.01 | 70 | 1019.2 |
| 20260831170945 | 72 | 321 | 1.0 | 2.0 | 0.00 | 0.47 | 0.01 | 71 | 1019.2 |
| 20260831170442 | 72 | 38 | 1.0 | 2.0 | 0.00 | 0.47 | 0.01 | 72 | 1019.2 |
| 20260831165949 | 73 | 38 | 1.0 | 2.0 | 0.00 | 0.47 | 0.01 | 68 | 1019.4 |
| 20260831165942 | 72 | 38 | 1.0 | 2.0 | 0.00 | 0.47 | 0.01 | 70 | 1019.3 |
| 20260831165443 | 73 | 38 | 1.0 | 2.0 | 0.00 | 0.47 | 0.01 | 70 | 1019.4 |
| 20260831165102 | 73 | 38 | 1.0 | 4.0 | 0.00 | 0.47 | 0.01 | 66 | 1019.4 |
| 20260831163942 | 73 | 286 | 1.0 | 4.0 | 0.00 | 0.47 | 0.01 | 66 | 1019.4 |
| 20260831163442 | 73 | 84 | 1.0 | 3.0 | 0.00 | 0.47 | 0.01 | 68 | 1019.5 |
| 20260831162942 | 72 | 96 | 1.0 | 3.0 | 0.00 | 0.47 | 0.01 | 70 | 1019.7 |
| 20260831162447 | 73 | 107 | 1.0 | 3.0 | 0.00 | 0.47 | 0.01 | 70 | 1019.5 |
| 20260831162442 | 73 | 107 | 1.0 | 3.0 | 0.00 | 0.47 | 0.01 | 68 | 1019.5 |
| 20260831161449 | 72 | 305 | 1.0 | 4.0 | 0.00 | 0.47 | 0.01 | 71 | 1019.7 |
| 20260831161443 | 73 | 304 | 1.0 | 4.0 | 0.00 | 0.47 | 0.01 | 71 | 1019.6 |
| 20260831160443 | 72 | 162 | 0.0 | 3.0 | 0.00 | 0.47 | 0.01 | 72 | 1019.7 |
| 20260831155941 | 72 | 167 | 1.0 | 3.0 | 0.00 | 0.47 | 0.01 | 71 | 1019.8 |
| 20260831155442 | 72 | 168 | 1.0 | 2.0 | 0.00 | 0.47 | 0.01 | 70 | 1019.9 |
| 20260831154941 | 71 | 244 | 1.0 | 3.0 | 0.00 | 0.47 | 0.01 | 73 | 1019.9 |
| 20260831154447 | 71 | 355 | 1.0 | 3.0 | 0.00 | 0.47 | 0.01 | 73 | 1020.1 |
| 20260831154442 | 71 | 231 | 1.0 | 3.0 | 0.00 | 0.47 | 0.01 | 72 | 1020.0 |
| 20260831153447 | 71 | 82 | 1.0 | 4.0 | 0.00 | 0.47 | 0.01 | 74 | 1020.2 |
| 20260831153441 | 71 | 94 | 1.0 | 4.0 | 0.00 | 0.47 | 0.01 | 72 | 1020.2 |
| 20260831153059 | 71 | 267 | 1.0 | 2.0 | 0.00 | 0.47 | 0.01 | 73 | 1020.1 |
| 20260831151941 | 71 | 277 | 1.0 | 4.0 | 0.00 | 0.47 | 0.01 | 74 | 1020.1 |
| 20260831151441 | 70 | 72 | 1.0 | 4.0 | 0.00 | 0.47 | 0.01 | 74 | 1020.1 |
| 20260831150939 | 70 | 254 | 1.0 | 2.0 | 0.00 | 0.47 | 0.01 | 74 | 1020.1 |
| 20260831150438 | 70 | 66 | 1.0 | 3.0 | 0.00 | 0.47 | 0.01 | 75 | 1020.1 |
| 20260831145938 | 70 | 330 | 1.0 | 3.0 | 0.00 | 0.47 | 0.01 | 75 | 1020.1 |
| 20260831145443 | 70 | 88 | 1.0 | 4.0 | 0.00 | 0.47 | 0.01 | 75 | 1020.0 |
| 20260831145438 | 70 | 275 | 1.0 | 4.0 | 0.00 | 0.47 | 0.01 | 74 | 1020.0 |
| 20260831144438 | 69 | 112 | 1.0 | 3.0 | 0.00 | 0.47 | 0.01 | 76 | 1020.0 |
| 20260831143939 | 69 | 99 | 1.0 | 3.0 | 0.00 | 0.47 | 0.01 | 78 | 1020.0 |
| 20260831143438 | 69 | 174 | 1.0 | 3.0 | 0.00 | 0.47 | 0.01 | 80 | 1020.1 |
| 20260831142939 | 69 | 103 | 1.0 | 3.0 | 0.00 | 0.47 | 0.01 | 81 | 1020.0 |
| 20260831142437 | 69 | 115 | 1.0 | 2.0 | 0.00 | 0.47 | 0.01 | 83 | 1019.9 |
| 20260831141935 | 69 | 78 | 1.0 | 2.0 | 0.00 | 0.47 | 0.01 | 83 | 1019.9 |
| 20260831141443 | 69 | 80 | 1.0 | 3.0 | 0.00 | 0.47 | 0.01 | 84 | 1019.9 |
| 20260831141438 | 69 | 76 | 1.0 | 3.0 | 0.00 | 0.47 | 0.01 | 82 | 1019.9 |
| 20260831141054 | 68 | 275 | 1.0 | 6.0 | 0.00 | 0.47 | 0.01 | 83 | 1019.9 |
| 20260831135936 | 68 | 280 | 1.0 | 6.0 | 0.00 | 0.47 | 0.01 | 83 | 1019.9 |
| 20260831135441 | 68 | 96 | 1.0 | 4.0 | 0.00 | 0.47 | 0.01 | 85 | 1019.9 |
| 20260831135435 | 68 | 255 | 1.0 | 4.0 | 0.00 | 0.47 | 0.01 | 86 | 1019.9 |
| 20260831134435 | 68 | 246 | 1.0 | 4.0 | 0.00 | 0.47 | 0.01 | 86 | 1019.9 |
| 20260831133933 | 67 | 90 | 1.0 | 3.0 | 0.00 | 0.47 | 0.01 | 87 | 1019.9 |
| 20260831133436 | 67 | 105 | 1.0 | 3.0 | 0.00 | 0.47 | 0.01 | 88 | 1019.9 |
| 20260831132933 | 67 | 121 | 1.0 | 3.0 | 0.00 | 0.47 | 0.01 | 88 | 1019.9 |
| 20260831132435 | 66 | 279 | 1.0 | 3.0 | 0.00 | 0.47 | 0.01 | 89 | 1019.9 |
| 20260831132431 | 67 | 279 | 1.0 | 3.0 | 0.00 | 0.47 | 0.01 | 89 | 1019.9 |
| 20260831131436 | 66 | 132 | 1.0 | 3.0 | 0.00 | 0.47 | 0.01 | 91 | 1019.8 |
| 20260831131430 | 66 | 123 | 1.0 | 3.0 | 0.00 | 0.47 | 0.01 | 91 | 1019.8 |
| 20260831130428 | 66 | 266 | 1.0 | 4.0 | 0.00 | 0.47 | 0.01 | 91 | 1019.8 |
| 20260831125930 | 65 | 115 | 1.0 | 4.0 | 0.00 | 0.47 | 0.01 | 92 | 1019.8 |
| 20260831125433 | 65 | 177 | 1.0 | 3.0 | 0.00 | 0.47 | 0.01 | 94 | 1019.8 |
| 20260831125429 | 65 | 118 | 1.0 | 3.0 | 0.00 | 0.47 | 0.01 | 93 | 1019.7 |
| 20260831124427 | 65 | 57 | 1.0 | 3.0 | 0.00 | 0.47 | 0.01 | 94 | 1019.7 |
| 20260831123929 | 65 | 76 | 1.0 | 3.0 | 0.00 | 0.47 | 0.01 | 94 | 1019.7 |
| 20260831123426 | 65 | 132 | 1.0 | 4.0 | 0.00 | 0.47 | 0.01 | 95 | 1019.6 |
| 20260831122926 | 65 | 103 | 0.0 | 4.0 | 0.00 | 0.47 | 0.01 | 95 | 1019.6 |
| 20260831122548 | 65 | 260 | 1.0 | 2.0 | 0.00 | 0.47 | 0.01 | 96 | 1019.3 |
| 20260831122425 | 65 | 119 | 0.0 | 2.0 | 0.00 | 0.47 | 0.01 | 95 | 1019.5 |
| 20260831121934 | 65 | 121 | 1.0 | 4.0 | 0.00 | 0.47 | 0.01 | 96 | 1019.2 |
| 20260831121927 | 65 | 123 | 0.0 | 4.0 | 0.00 | 0.47 | 0.01 | 96 | 1019.4 |
| 20260831120426 | 65 | 264 | 1.0 | 2.0 | 0.00 | 0.47 | 0.01 | 96 | 1019.3 |
| 20260831115926 | 65 | 277 | 0.0 | 2.0 | 0.00 | 0.47 | 0.01 | 96 | 1019.2 |
| 20260831115425 | 65 | 276 | 0.0 | 1.0 | 0.00 | 0.47 | 0.01 | 96 | 1019.3 |
| 20260831114927 | 65 | 275 | 0.0 | 1.0 | 0.00 | 0.47 | 0.01 | 96 | 1019.3 |
| 20260831114427 | 65 | 275 | 0.0 | 1.0 | 0.00 | 0.47 | 0.01 | 96 | 1019.2 |
| 20260831113925 | 65 | 275 | 0.0 | 1.0 | 0.00 | 0.47 | 0.01 | 96 | 1019.2 |
| 20260831113425 | 65 | 275 | 0.0 | 1.0 | 0.00 | 0.47 | 0.01 | 96 | 1019.1 |
| 20260831112926 | 65 | 265 | 0.0 | 1.0 | 0.00 | 0.47 | 0.01 | 96 | 1019.0 |
| 20260831112425 | 64 | 265 | 0.0 | 1.0 | 0.00 | 0.47 | 0.01 | 96 | 1019.1 |
| 20260831111925 | 64 | 265 | 0.0 | 1.0 | 0.00 | 0.47 | 0.01 | 96 | 1019.1 |
| 20260831111425 | 64 | 265 | 0.0 | 2.0 | 0.00 | 0.47 | 0.01 | 96 | 1019.0 |
| 20260831110927 | 64 | 265 | 1.0 | 2.0 | 0.00 | 0.47 | 0.01 | 97 | 1018.9 |
| 20260831110425 | 64 | 265 | 0.0 | 2.0 | 0.00 | 0.47 | 0.01 | 96 | 1018.9 |
| 20260831105925 | 63 | 265 | 0.0 | 1.0 | 0.00 | 0.47 | 0.01 | 96 | 1018.9 |
| 20260831105428 | 63 | 265 | 0.0 | 1.0 | 0.00 | 0.47 | 0.01 | 96 | 1018.8 |
| 20260831104930 | 63 | 265 | 0.0 | 1.0 | 0.00 | 0.47 | 0.01 | 96 | 1018.8 |
| 20260831104924 | 62 | 265 | 0.0 | 1.0 | 0.00 | 0.47 | 0.01 | 96 | 1018.8 |
| 20260831103925 | 62 | 265 | 0.0 | 0.0 | 0.00 | 0.47 | 0.01 | 96 | 1018.7 |
| 20260831103423 | 62 | 265 | 0.0 | 0.0 | 0.00 | 0.47 | 0.01 | 96 | 1018.8 |
| 20260831102924 | 62 | 265 | 0.0 | 1.0 | 0.00 | 0.47 | 0.01 | 96 | 1018.6 |
| 20260831102423 | 63 | 265 | 0.0 | 1.0 | 0.00 | 0.47 | 0.01 | 95 | 1018.6 |
| 20260831101922 | 63 | 265 | 0.0 | 0.0 | 0.00 | 0.47 | 0.01 | 95 | 1018.6 |
| 20260831101427 | 64 | 265 | 0.0 | 1.0 | 0.00 | 0.47 | 0.01 | 96 | 1018.4 |
| 20260831101421 | 64 | 265 | 0.0 | 1.0 | 0.00 | 0.47 | 0.01 | 96 | 1018.5 |
| 20260831100422 | 64 | 265 | 0.0 | 1.0 | 0.00 | 0.47 | 0.01 | 96 | 1018.2 |
| 20260831095921 | 64 | 265 | 0.0 | 1.0 | 0.00 | 0.47 | 0.01 | 96 | 1018.2 |
| 20260831095420 | 64 | 265 | 0.0 | 1.0 | 0.00 | 0.47 | 0.01 | 96 | 1018.2 |
| 20260831094919 | 64 | 265 | 0.0 | 1.0 | 0.00 | 0.47 | 0.01 | 96 | 1018.1 |
| 20260831094425 | 64 | 265 | 0.0 | 1.0 | 0.00 | 0.47 | 0.01 | 96 | 1018.0 |
| 20260831094421 | 64 | 265 | 0.0 | 1.0 | 0.00 | 0.47 | 0.01 | 96 | 1018.1 |
| 20260831093419 | 64 | 265 | 0.0 | 1.0 | 0.00 | 0.47 | 0.01 | 96 | 1017.9 |
| 20260831092918 | 64 | 265 | 0.0 | 1.0 | 0.00 | 0.47 | 0.01 | 96 | 1018.0 |
| 20260831092417 | 63 | 265 | 0.0 | 0.0 | 0.00 | 0.47 | 0.01 | 96 | 1018.0 |
| 20260831091915 | 63 | 265 | 0.0 | 0.0 | 0.00 | 0.47 | 0.01 | 95 | 1017.9 |
| 20260831091418 | 63 | 265 | 0.0 | 0.0 | 0.00 | 0.47 | 0.01 | 95 | 1018.0 |
| 20260831090920 | 64 | 265 | 0.0 | 0.0 | 0.00 | 0.47 | 0.01 | 95 | 1017.8 |
| 20260831090916 | 63 | 266 | 0.0 | 0.0 | 0.00 | 0.47 | 0.01 | 95 | 1017.9 |
| 20260831085915 | 64 | 265 | 0.0 | 0.0 | 0.00 | 0.47 | 0.01 | 95 | 1017.8 |
| 20260831085416 | 64 | 265 | 0.0 | 0.0 | 0.00 | 0.47 | 0.01 | 95 | 1017.8 |
| 20260831084917 | 64 | 265 | 0.0 | 0.0 | 0.00 | 0.47 | 0.01 | 95 | 1017.7 |
| 20260831084416 | 64 | 265 | 0.0 | 0.0 | 0.00 | 0.47 | 0.01 | 95 | 1017.7 |
| 20260831083921 | 64 | 265 | 0.0 | 0.0 | 0.00 | 0.47 | 0.01 | 95 | 1017.6 |
| 20260831083914 | 64 | 265 | 0.0 | 0.0 | 0.00 | 0.47 | 0.01 | 95 | 1017.6 |
| 20260831083530 | 64 | 266 | 0.0 | 0.0 | 0.00 | 0.47 | 0.01 | 95 | 1017.6 |
| 20260831082914 | 64 | 265 | 0.0 | 0.0 | 0.00 | 0.47 | 0.01 | 95 | 1017.6 |
| 20260831081913 | 64 | 265 | 0.0 | 0.0 | 0.00 | 0.47 | 0.01 | 95 | 1017.5 |
| 20260831081414 | 64 | 265 | 0.0 | 0.0 | 0.00 | 0.47 | 0.01 | 95 | 1017.4 |
| 20260831080921 | 65 | 265 | 0.0 | 1.0 | 0.00 | 0.47 | 0.01 | 95 | 1017.3 |
| 20260831080915 | 65 | 265 | 0.0 | 0.0 | 0.00 | 0.47 | 0.01 | 95 | 1017.4 |
| 20260831080416 | 65 | 265 | 0.0 | 1.0 | 0.00 | 0.47 | 0.01 | 95 | 1017.4 |
| 20260831075418 | 65 | 265 | 0.0 | 0.0 | 0.00 | 0.47 | 0.01 | 95 | 1017.2 |
| 20260831075412 | 65 | 265 | 0.0 | 0.0 | 0.00 | 0.47 | 0.01 | 95 | 1017.2 |
| 20260831075031 | 65 | 265 | 0.0 | 0.0 | 0.00 | 0.47 | 0.01 | 95 | 1017.1 |
| 20260831073917 | 66 | 265 | 0.0 | 0.0 | 0.00 | 0.47 | 0.01 | 95 | 1017.0 |
| 20260831073912 | 65 | 265 | 0.0 | 0.0 | 0.00 | 0.47 | 0.01 | 95 | 1017.1 |
| 20260831073411 | 65 | 265 | 0.0 | 0.0 | 0.00 | 0.47 | 0.01 | 95 | 1017.0 |
| 20260831072411 | 66 | 265 | 0.0 | 0.0 | 0.00 | 0.47 | 0.01 | 95 | 1017.0 |
| 20260831071911 | 66 | 265 | 0.0 | 1.0 | 0.00 | 0.47 | 0.01 | 95 | 1016.9 |
| 20260831071412 | 67 | 265 | 0.0 | 1.0 | 0.00 | 0.47 | 0.01 | 95 | 1016.9 |
| 20260831070912 | 67 | 265 | 0.0 | 1.0 | 0.00 | 0.47 | 0.01 | 95 | 1016.9 |
| 20260831070412 | 67 | 265 | 0.0 | 1.0 | 0.00 | 0.47 | 0.01 | 95 | 1016.9 |
| 20260831065916 | 67 | 265 | 0.0 | 2.0 | 0.00 | 0.47 | 0.01 | 95 | 1016.7 |
| 20260831065910 | 67 | 265 | 0.0 | 2.0 | 0.00 | 0.47 | 0.01 | 95 | 1016.8 |
| 20260831064911 | 67 | 265 | 1.0 | 2.0 | 0.00 | 0.47 | 0.01 | 95 | 1016.7 |
| 20260831064408 | 67 | 323 | 1.0 | 2.0 | 0.00 | 0.47 | 0.01 | 95 | 1016.7 |
| 20260831063906 | 67 | 323 | 1.0 | 3.0 | 0.00 | 0.47 | 0.01 | 95 | 1016.7 |
| 20260831063407 | 68 | 323 | 1.0 | 3.0 | 0.00 | 0.47 | 0.01 | 95 | 1016.8 |
| 20260831062907 | 68 | 244 | 1.0 | 3.0 | 0.00 | 0.47 | 0.01 | 95 | 1016.7 |
| 20260831062409 | 68 | 244 | 1.0 | 2.0 | 0.00 | 0.47 | 0.01 | 95 | 1016.7 |
| 20260831061906 | 68 | 244 | 1.0 | 2.0 | 0.00 | 0.47 | 0.01 | 95 | 1016.8 |
| 20260831061406 | 68 | 244 | 1.0 | 2.0 | 0.00 | 0.47 | 0.01 | 95 | 1016.8 |
| 20260831060912 | 68 | 244 | 1.0 | 2.0 | 0.00 | 0.47 | 0.01 | 95 | 1016.7 |
| 20260831060907 | 68 | 244 | 1.0 | 2.0 | 0.00 | 0.47 | 0.01 | 95 | 1016.7 |
| 20260831055906 | 68 | 244 | 1.0 | 2.0 | 0.00 | 0.47 | 0.01 | 95 | 1016.6 |
| 20260831055901 | 68 | 244 | 1.0 | 4.0 | 0.00 | 0.47 | 0.01 | 95 | 1016.7 |
| 20260831054900 | 68 | 242 | 1.0 | 4.0 | 0.00 | 0.47 | 0.01 | 95 | 1016.6 |
| 20260831054402 | 68 | 244 | 1.0 | 2.0 | 0.00 | 0.47 | 0.01 | 95 | 1016.6 |
| 20260831053904 | 68 | 244 | 1.0 | 3.0 | 0.00 | 0.47 | 0.01 | 95 | 1016.5 |
| 20260831053859 | 68 | 244 | 1.0 | 3.0 | 0.00 | 0.47 | 0.01 | 95 | 1016.5 |
| 20260831053517 | 69 | 260 | 1.0 | 3.0 | 0.00 | 0.47 | 0.01 | 95 | 1016.5 |
| 20260831052402 | 69 | 257 | 1.0 | 2.0 | 0.01 | 0.47 | 0.01 | 94 | 1016.2 |
| 20260831052358 | 69 | 261 | 1.0 | 2.0 | 0.01 | 0.47 | 0.01 | 94 | 1016.3 |
| 20260831051358 | 69 | 256 | 1.0 | 4.0 | 0.01 | 0.47 | 0.01 | 95 | 1016.2 |
| 20260831050858 | 69 | 255 | 1.0 | 4.0 | 0.01 | 0.47 | 0.01 | 95 | 1016.2 |
| 20260831050357 | 69 | 262 | 0.0 | 2.0 | 0.01 | 0.47 | 0.01 | 95 | 1016.0 |
| 20260831045858 | 69 | 261 | 0.0 | 1.0 | 0.01 | 0.47 | 0.01 | 94 | 1015.9 |
| 20260831045358 | 69 | 261 | 0.0 | 1.0 | 0.01 | 0.47 | 0.01 | 94 | 1016.0 |
| 20260831044857 | 69 | 261 | 0.0 | 1.0 | 0.01 | 0.47 | 0.01 | 94 | 1016.1 |
| 20260831044358 | 69 | 261 | 0.0 | 0.0 | 0.02 | 0.47 | 0.01 | 94 | 1016.1 |
| 20260831043858 | 69 | 261 | 0.0 | 0.0 | 0.06 | 0.47 | 0.01 | 94 | 1016.2 |
| 20260831043358 | 69 | 261 | 0.0 | 0.0 | 0.20 | 0.47 | 0.01 | 94 | 1016.1 |
| 20260831042902 | 69 | 261 | 0.0 | 0.0 | 0.34 | 0.46 | 0.00 | 94 | 1016.1 |
| 20260831042857 | 69 | 261 | 0.0 | 0.0 | 0.27 | 0.47 | 0.01 | 94 | 1016.1 |
| 20260831041901 | 69 | 261 | 0.0 | 0.0 | 0.41 | 0.46 | 0.00 | 94 | 1016.1 |
| 20260831041855 | 69 | 261 | 0.0 | 0.0 | 0.43 | 0.46 | 0.00 | 94 | 1016.2 |
| 20260831041510 | 69 | 261 | 0.0 | 1.0 | 0.44 | 0.46 | 0.00 | 94 | 1016.2 |
| 20260831040356 | 69 | 261 | 0.0 | 1.0 | 0.44 | 0.46 | 0.00 | 93 | 1016.3 |
| 20260831035856 | 69 | 261 | 0.0 | 2.0 | 0.44 | 0.46 | 0.46 | 93 | 1016.3 |
| 20260831035356 | 69 | 262 | 1.0 | 4.0 | 0.45 | 0.46 | 0.46 | 93 | 1016.2 |
| 20260831034854 | 69 | 261 | 2.0 | 4.0 | 0.45 | 0.46 | 0.46 | 93 | 1016.3 |